Wind_Speed
62 64 70 75 77 71 65 69 66 73 76 74 64 60 65 69 74 73 70 68 68 65 66 64 64 66 69 59 62 59 61 56 56 55 52 64 71 72 68 72 71 72 77 78
57 48 47 53 59 60 55 61 72 61 67 67 67 68 67 67 66 68 69 80 78 73 67 63 67 62 69 71 61 64 53 54 55 52 51 68 68 66 68 71 67 73 60 63
49 47 50 54 53 55 57 57 58 59 57 56 55 56 63 67 68 70 68 67 68 66 61 60 58 64 59 56 56 56 47 47 45 47 55 66 66 64 67 66 67 53 45 60
50 50 54 53 51 52 53 53 53 52 51 54 55 55 51 52 58 54 50 50 54 60 64 70 63 63 62 57 50 41 42 45 41 46 40 45 45 61 62 61 67 51 57 49
42 43 47 46 44 44 45 45 43 45 48 49 50 51 47 48 48 50 50 46 44 43 46 48 57 57 60 59 65 63 54 53 40 40 37 38 28 28 38 41 31 45 47 37
31 33 35 37 33 31 35 42 43 42 42 44 46 49 47 40 46 47 50 53 53 51 47 42 43 46 51 58 63 55 52 52 51 52 36 37 34 35 32 30 28 46 40 37
25 29 33 32 33 34 36 37 38 42 46 50 49 47 48 45 46 52 56 57 58 60 54 47 47 48 49 49 50 47 45 44 47 44 39 42 36 32 32 31 35 39 34 35
24 28 31 29 29 29 32 34 37 40 39 40 40 39 46 48 52 53 53 53 51 53 50 43 49 51 50 51 38 48 42 41 47 38 44 42 40 39 35 34 34 34 35 36
25 25 23 22 22 24 23 19 23 24 27 31 31 31 33 33 37 36 40 40 41 47 44 46 49 52 47 46 48 48 43 31 37 45 49 44 44 40 36 39 37 36 34 35
16 17 16 20 23 26 29 30 30 32 32 35 36 36 39 43 40 37 35 28 29 33 32 42 43 44 45 39 40 46 49 44 38 33 41 44 42 33 33 36 38 38 41 47
22 24 24 26 27 29 31 33 38 40 42 46 49 49 50 48 36 31 25 17 24 16 20 25 32 38 39 33 34 33 34 38 37 38 36 34 29 29 33 33 34 33 30 21
26 27 27 26 28 31 32 31 30 31 29 30 34 37 33 30 28 28 20 16 14 8 9 21 24 28 31 31 36 26 26 26 25 27 28 31 28 32 26 20 16 15 15 15
25 25 26 28 27 28 26 24 27 28 30 28 27 29 24 21 21 16 7 10 17 11 6 12 24 28 29 38 41 36 28 30 32 29 27 28 34 32 24 19 15 12 13 15
22 23 24 25 25 27 30 30 30 31 29 27 26 24 20 19 16 10 9 6 12 22 28 22 24 29 26 24 22 29 29 26 24 20 20 18 14 14 17 17 17 17 17 17
18 18 20 20 21 22 24 22 22 24 24 21 21 20 16 15 13 11 13 10 15 22 25 33 37 32 32 29 31 33 31 21 20 20 19 22 24 25 23 22 22 21 20 20
11 13 14 14 15 17 15 16 18 16 16 17 18 15 13 10 7 24 21 13 13 15 17 27 28 25 24 24 26 35 28 26 25 25 24 25 25 24 24 24 24 23 25 27
8 12 14 16 16 17 17 20 20 15 14 13 13 15 10 12 9 22 15 13 13 11 12 15 22 22 25 26 25 24 25 26 26 27 27 26 26 26 24 23 24 26 27 30
8 12 14 16 19 19 19 19 21 15 12 11 8 15 16 11 10 16 21 14 13 17 17 17 18 20 22 22 23 24 24 23 23 23 23 23 22 22 23 24 26 29 33 36
7 9 12 15 18 21 22 21 25 16 11 10 9 17 16 17 15 13 14 13 16 18 18 19 21 22 22 22 23 24 23 23 24 24 24 24 25 26 27 27 29 33 36 36
4 9 13 17 20 21 24 23 24 22 10 10 10 8 16 21 19 13 15 17 17 15 15 16 19 20 20 21 23 23 23 23 24 25 26 26 26 27 29 31 33 35 38 40
9 12 14 17 18 21 21 24 22 26 10 9 10 10 23 18 18 17 21 20 20 20 19 17 17 18 22 24 24 24 24 23 22 23 25 28 28 29 31 34 37 39 41 42
13 14 15 17 17 18 19 20 22 19 17 3 10 7 25 18 22 20 20 21 22 22 20 19 20 21 22 23 22 22 21 23 24 24 25 26 29 31 36 38 40 41 40 40
17 16 17 19 17 17 17 17 18 19 14 12 8 10 9 26 20 28 26 25 23 22 21 21 20 21 20 20 21 22 22 23 24 25 27 29 33 34 37 38 42 46 49 53
25 24 23 21 19 18 16 17 17 17 15 11 9 11 11 14 25 21 24 27 25 26 24 25 24 23 24 25 25 25 25 25 26 27 30 32 33 36 40 43 50 54 54 56
30 29 27 25 23 23 20 18 17 16 15 13 10 8 12 17 14 21 23 27 25 26 28 30 29 29 28 30 29 30 30 30 31 32 31 32 35 38 43 48 45 44 42 40
33 32 31 31 29 27 23 21 20 19 17 16 13 11 13 17 14 14 23 23 24 27 31 35 34 33 32 28 26 25 23 26 28 27 30 34 38 41 44 38 36 33 28 25
46 44 41 37 36 34 31 28 25 23 21 18 17 15 15 18 20 21 24 28 29 27 27 31 34 34 30 29 28 26 26 30 31 31 34 35 37 39 33 30 28 25 24 18
Wind_Direction
256 257 258 261 261 266 268 268 268 258 264 267 267 265 265 266 266 263 254 248 244 245 251 261 269 270 269 275 262 258 264 261 254 262 265 255 252 248 246 245 246 253 257 259
258 261 261 261 262 271 274 273 272 275 267 265 266 265 261 258 258 259 259 255 256 265 268 266 265 263 261 265 267 267 266 263 259 262 266 254 250 246 244 246 248 253 255 262
257 258 258 262 265 268 271 273 274 275 277 275 271 268 266 266 268 269 270 269 266 260 260 260 262 260 260 263 261 258 236 235 244 253 243 248 246 244 246 250 257 246 235 246
263 262 262 265 265 265 266 267 268 270 270 271 271 271 270 270 268 267 267 267 268 269 268 264 260 263 259 253 243 245 236 225 229 228 232 240 241 239 240 251 244 241 247 246
265 266 269 269 270 268 266 264 265 267 269 271 274 272 275 281 283 277 275 270 267 267 265 259 257 262 259 255 256 267 257 256 239 226 236 242 245 244 247 257 260 251 263 244
267 273 276 274 278 279 278 273 269 270 273 274 276 278 279 282 284 284 285 285 281 277 269 262 248 245 245 250 257 261 260 265 269 263 250 241 251 259 265 260 254 236 235 247
281 284 286 286 284 283 280 280 275 273 272 271 274 278 277 279 281 284 284 282 280 276 273 262 242 234 235 232 237 239 242 244 246 247 238 242 237 239 247 245 233 249 255 243
278 280 284 284 279 275 274 279 278 277 278 278 279 280 279 279 281 283 285 283 275 269 261 245 238 233 231 229 236 236 231 235 235 230 236 240 236 228 228 231 229 225 233 238
279 283 285 286 274 276 282 290 297 295 290 287 284 280 284 285 277 275 270 260 258 259 252 234 230 234 233 231 222 226 237 229 233 229 234 237 233 225 225 226 226 234 238 235
271 265 279 295 293 292 295 296 292 288 287 287 285 281 279 282 285 274 260 256 260 257 255 236 234 232 231 230 232 233 240 244 247 242 239 237 240 232 239 245 241 234 233 235
272 281 285 293 292 295 296 294 292 290 287 285 283 280 279 279 276 262 258 267 247 252 238 220 228 222 222 219 222 236 239 243 249 248 243 243 244 245 223 228 236 226 227 226
271 277 282 284 288 292 292 289 290 292 288 290 287 281 275 266 258 255 253 294 191 212 222 211 212 210 208 213 224 226 232 236 234 228 234 225 233 231 209 187 185 201 216 227
271 278 285 290 294 290 287 286 286 287 284 288 295 287 276 247 244 261 261 299 210 172 180 208 208 193 203 220 213 230 229 229 230 223 215 218 216 206 187 193 203 215 233 232
279 288 294 293 296 295 295 293 291 288 284 286 291 288 251 237 264 270 206 179 170 202 192 212 209 214 215 213 225 223 223 211 193 178 172 183 183 175 185 194 204 213 222 234
287 298 307 307 305 300 293 289 285 283 282 280 282 265 227 246 283 198 184 144 160 166 163 176 197 199 207 213 212 206 203 177 179 177 180 181 190 195 200 204 211 220 230 239
319 325 331 332 326 331 332 320 292 282 281 272 277 241 218 259 220 144 176 164 129 145 179 201 199 192 192 207 219 217 185 176 181 183 188 194 200 203 213 219 224 236 246 253
351 351 351 348 339 333 333 327 323 286 278 266 271 204 168 153 159 172 173 181 176 158 167 178 172 175 180 184 182 174 175 182 189 193 197 202 210 217 226 234 245 252 259 265
358 358 354 357 354 343 340 338 334 312 268 261 267 191 157 172 165 178 196 182 180 181 185 181 175 179 182 184 184 185 187 192 198 205 213 222 228 235 243 251 259 266 269 271
355 356 354 354 354 352 350 344 344 330 272 234 238 215 189 194 166 178 206 207 181 178 180 183 183 182 185 190 192 195 198 203 210 217 223 228 236 245 254 262 268 272 273 275
356 4 359 359 358 354 354 352 349 347 302 224 217 201 182 186 192 189 190 193 178 183 187 192 193 195 200 203 203 204 207 213 218 226 236 244 251 260 266 270 271 273 275 275
292 318 334 339 340 351 354 357 353 355 349 216 215 187 179 185 196 201 188 194 198 204 200 199 202 209 212 210 213 216 221 227 234 241 249 256 263 269 270 274 279 280 279 277
290 297 310 327 328 338 346 350 357 357 3 264 228 221 193 187 186 205 192 197 199 202 208 216 220 223 225 226 230 234 237 243 249 253 257 261 265 269 271 273 276 278 280 282
285 290 296 307 313 329 335 344 344 352 351 353 257 240 225 199 188 196 197 204 203 203 203 205 208 213 220 225 231 236 240 244 251 258 261 266 270 273 276 279 283 288 289 287
278 283 288 292 298 303 322 327 334 334 337 327 336 241 238 226 210 203 202 202 208 214 214 219 221 222 224 229 233 239 246 256 263 267 268 268 274 279 285 292 294 292 291 289
269 272 278 283 285 285 293 310 313 322 320 315 301 265 254 217 209 217 224 222 216 215 226 233 235 238 242 244 246 247 251 259 260 262 267 277 287 293 297 297 297 302 306 303
270 271 275 279 282 281 280 289 298 300 307 304 293 274 252 247 234 229 218 214 213 214 220 226 229 232 230 232 240 250 252 258 263 270 282 288 292 295 294 297 303 312 317 308
274 275 274 275 275 276 276 280 281 285 288 288 288 275 258 248 239 232 228 226 226 225 225 228 231 231 233 237 242 247 253 259 269 278 283 286 291 290 293 301 306 314 308 303
Height
5462 5465 5468 5470 5473 5472 5473 5477 5476 5479 5480 5488 5481 5488 5492 5494 5498 5502 5508 5510 5513 5517 5519 5521 5524 5526 5529 5532 5536 5540 5545 5551 5556 5559 5561 5562 5564 5569 5575 5576 5579 5584 5586 5586
5453 5456 5454 5454 5459 5461 5461 5462 5455 5459 5464 5471 5471 5472 5475 5478 5478 5481 5485 5490 5495 5499 5503 5505 5509 5513 5516 5518 5521 5525 5528 5532 5536 5539 5544 5546 5547 5551 5556 5560 5564 5565 5571 5570
5440 5444 5442 5442 5453 5452 5450 5447 5447 5446 5453 5451 5454 5456 5459 5462 5461 5463 5467 5470 5475 5482 5486 5490 5492 5497 5502 5504 5506 5510 5513 5516 5518 5521 5528 5532 5532 5536 5542 5545 5550 5548 5542 5552
5428 5429 5428 5436 5439 5439 5437 5437 5437 5437 5439 5439 5439 5442 5447 5442 5443 5447 5449 5453 5457 5462 5467 5471 5475 5479 5484 5489 5491 5495 5499 5503 5507 5511 5515 5520 5517 5522 5527 5529 5532 5526 5539 5540
5416 5418 5418 5423 5424 5425 5424 5428 5427 5427 5426 5427 5425 5429 5436 5428 5430 5430 5431 5435 5440 5444 5448 5452 5456 5459 5465 5470 5475 5479 5486 5492 5497 5498 5502 5506 5506 5511 5516 5515 5512 5517 5522 5528
5409 5409 5409 5412 5413 5414 5412 5413 5415 5415 5414 5414 5413 5414 5421 5417 5416 5416 5416 5416 5419 5425 5432 5437 5436 5439 5445 5453 5459 5464 5470 5475 5480 5485 5489 5492 5493 5497 5502 5504 5506 5508 5514 5519
5402 5401 5403 5404 5404 5405 5404 5406 5403 5403 5404 5403 5403 5402 5405 5406 5404 5401 5401 5403 5404 5406 5413 5420 5420 5423 5429 5435 5443 5446 5453 5460 5465 5468 5472 5479 5485 5487 5491 5495 5498 5501 5503 5510
5397 5396 5396 5396 5395 5396 5394 5394 5393 5392 5392 5391 5390 5391 5389 5393 5390 5388 5387 5389 5389 5390 5396 5400 5404 5407 5414 5421 5432 5434 5440 5443 5449 5455 5461 5465 5472 5477 5482 5486 5488 5491 5493 5499
5392 5391 5389 5388 5388 5387 5387 5387 5385 5385 5384 5381 5382 5381 5379 5379 5377 5375 5373 5374 5374 5373 5376 5381 5387 5393 5401 5409 5417 5422 5427 5431 5436 5442 5449 5453 5459 5464 5469 5474 5479 5481 5484 5487
5386 5386 5385 5384 5383 5382 5381 5380 5378 5376 5376 5374 5372 5371 5369 5366 5365 5361 5360 5361 5361 5359 5360 5365 5374 5382 5391 5399 5408 5413 5417 5421 5425 5431 5439 5444 5448 5454 5459 5464 5468 5470 5474 5477
5381 5380 5380 5378 5375 5373 5372 5370 5368 5366 5364 5362 5358 5358 5354 5352 5352 5351 5350 5349 5350 5351 5350 5356 5364 5372 5382 5392 5401 5405 5409 5413 5416 5423 5430 5437 5439 5444 5447 5454 5459 5461 5464 5467
5374 5373 5373 5372 5368 5365 5363 5360 5358 5356 5354 5351 5345 5342 5341 5340 5340 5342 5343 5343 5345 5347 5349 5352 5359 5368 5378 5386 5392 5399 5403 5408 5412 5417 5423 5428 5431 5437 5441 5446 5449 5454 5459 5463
5368 5366 5365 5362 5360 5357 5354 5352 5351 5348 5344 5341 5340 5334 5333 5332 5335 5336 5338 5339 5340 5345 5349 5352 5357 5366 5376 5382 5388 5393 5398 5402 5407 5412 5417 5422 5426 5430 5437 5441 5444 5449 5454 5457
5361 5359 5358 5354 5351 5349 5346 5344 5342 5339 5336 5335 5333 5329 5327 5330 5332 5333 5336 5338 5340 5342 5347 5354 5360 5366 5373 5378 5381 5389 5393 5397 5401 5405 5409 5417 5421 5427 5434 5438 5441 5445 5449 5451
5356 5353 5350 5348 5345 5342 5338 5336 5334 5332 5329 5328 5327 5323 5325 5330 5329 5331 5334 5336 5339 5343 5347 5351 5357 5364 5369 5376 5380 5385 5389 5392 5399 5404 5410 5415 5420 5425 5429 5432 5436 5440 5442 5443
5351 5349 5347 5344 5341 5338 5334 5330 5327 5325 5324 5323 5322 5322 5326 5328 5326 5329 5333 5337 5339 5343 5347 5352 5356 5362 5367 5373 5377 5382 5385 5391 5397 5401 5406 5411 5416 5420 5425 5428 5431 5433 5435 5436
5350 5348 5345 5342 5338 5334 5330 5326 5323 5319 5319 5318 5319 5322 5325 5326 5326 5330 5333 5337 5339 5342 5347 5352 5355 5359 5365 5370 5375 5379 5384 5390 5395 5400 5405 5409 5414 5417 5419 5421 5423 5425 5425 5426
5348 5346 5344 5341 5337 5333 5328 5324 5319 5315 5314 5315 5316 5320 5323 5325 5326 5330 5333 5337 5339 5343 5347 5351 5355 5360 5365 5369 5373 5378 5383 5387 5392 5396 5400 5403 5407 5409 5411 5413 5415 5415 5416 5416
5346 5344 5342 5339 5336 5331 5326 5321 5316 5311 5310 5312 5314 5316 5322 5325 5327 5329 5334 5336 5339 5343 5347 5351 5355 5360 5364 5369 5372 5376 5380 5384 5388 5392 5396 5398 5400 5402 5404 5405 5406 5407 5407 5407
5344 5342 5340 5338 5335 5331 5326 5320 5315 5310 5307 5309 5312 5315 5319 5323 5326 5329 5332 5336 5338 5342 5347 5351 5354 5359 5363 5367 5371 5374 5377 5381 5384 5387 5390 5392 5394 5395 5396 5396 5397 5397 5397 5397
5342 5340 5338 5336 5334 5330 5326 5321 5316 5310 5307 5309 5311 5315 5319 5322 5325 5328 5331 5334 5337 5342 5346 5350 5354 5358 5362 5365 5368 5371 5374 5377 5380 5382 5385 5387 5387 5387 5388 5388 5387 5386 5385 5383
5338 5337 5336 5334 5332 5329 5326 5322 5318 5313 5309 5310 5311 5313 5316 5319 5324 5327 5330 5333 5337 5340 5343 5347 5351 5355 5358 5361 5363 5367 5370 5372 5375 5376 5378 5378 5379 5379 5379 5378 5376 5374 5372 5370
5334 5333 5332 5331 5329 5327 5325 5322 5319 5315 5312 5310 5311 5312 5313 5316 5319 5324 5328 5332 5335 5337 5340 5344 5347 5350 5353 5356 5359 5362 5365 5367 5368 5369 5370 5370 5371 5370 5369 5367 5364 5361 5357 5353
5328 5328 5327 5327 5326 5324 5323 5320 5318 5316 5312 5310 5309 5310 5311 5312 5315 5318 5322 5326 5329 5332 5335 5339 5342 5345 5348 5351 5354 5356 5358 5360 5361 5362 5362 5363 5361 5360 5358 5354 5349 5344 5338 5332
5320 5320 5320 5320 5320 5319 5318 5317 5316 5314 5312 5309 5308 5308 5308 5309 5311 5314 5316 5319 5322 5326 5330 5333 5336 5339 5342 5345 5347 5350 5351 5352 5354 5354 5354 5353 5351 5348 5345 5341 5336 5329 5321 5311
5310 5310 5310 5311 5312 5312 5312 5312 5311 5310 5309 5307 5306 5305 5306 5306 5307 5309 5312 5314 5316 5319 5322 5326 5329 5332 5336 5338 5340 5342 5342 5344 5345 5344 5344 5342 5340 5338 5335 5330 5325 5319 5313 5307
5297 5298 5299 5299 5301 5302 5303 5304 5304 5303 5303 5302 5301 5301 5300 5301 5302 5304 5306 5308 5311 5313 5316 5319 5321 5324 5327 5328 5330 5332 5333 5335 5335 5335 5334 5333 5331 5329 5325 5321 5317 5312 5309 5305